Youcef Mrezigue

Olheiro-Chefe - MC Alger
4 Abr 2027
Domingo
Processo

Personalidade

Adaptabilidade (2) Ambição (1) Controvérsia (3) Lealdade (5) Pressão (1) Profissionalismo (6) Espírito Esportivo (14) Temperamento (1)

Perfil

Estilo de Treinamento Democrático
Licença Continental Pro
Determinação 5
Gestão de Pessoas 12
Motivação 10
Disciplina 10
Satisfação no Trabalho
58%
Fadiga
0%
Função Olheiro-Chefe
Salário 29.8K p/s
Contrato 14.03.2028

Desempenho

Comportamento Bom
Eficácia do Treinamento
27%
Desenvolvimento do Jogador
35%
Prevenção de Lesões
40%
Implementação Tática
45%

Eventos Recentes

Avaliou um jogador agora
Participou de uma reunião de recrutamento agora
Participou de uma reunião de recrutamento agora
Participou de uma reunião de recrutamento agora
Participou de uma reunião de recrutamento agora
Avaliou um jogador agora
Avaliou um jogador agora
Avaliou um jogador agora

Monitorando agora

166
Jogador Clube Status Habilidade Confiança Observado Última observação Último voto
Juanjo Narváez Al-Ra'ed Ativo 108 / 112 40% 5 03.04.2027 -
Leo Goglichidze Rodina Ativo 107 / 117 40% 3 03.04.2027 -
Jordan Graham Newport County Ativo 97 / 105 40% 1 02.04.2027 -
Jay Matete Milton Keynes Dons Ativo 126 / 108 40% 1 02.04.2027 -
Velemseni Ndwandwe Golden Arrows Ativo 121 / 109 40% 2 01.04.2027 -
Harry Cornick AFC Wimbledon Ativo 89 / 105 40% 2 01.04.2027 -
Otávio Al-Qadisiyah Ativo 144 / 144 40% 4 31.03.2027 -
Saâdi Radouani USM Alger Ativo 119 / 102 40% 1 31.03.2027 -
Brian Figueroa Morelia Ativo 104 / 116 40% 6 30.03.2027 -
Luke Molyneux Doncaster Rovers Ativo 126 / 117 40% 3 29.03.2027 -
Marcus Browne AFC Wimbledon Ativo 97 / 104 40% 1 29.03.2027 -
Nabil Alioui Damac Ativo 123 / 102 40% 8 28.03.2027 -
Lebohang Maboe Kaizer Chiefs Ativo 122 / 121 40% 4 28.03.2027 -
Thulani Mabaso Platinum Stars Ativo 104 / 114 40% 3 28.03.2027 -
Abdennour Iheb Belhocini JS Kabylie Ativo 115 / 115 40% 1 26.03.2027 -
Andrea Ciofi Cesena Ativo 110 / 124 40% 1 25.03.2027 -
George Honeyman Blackpool Ativo 102 / 114 40% 1 25.03.2027 -
Abraham Ofori WAFA Ativo 111 / 105 40% 3 24.03.2027 -
Artem Slesar Zorya Ativo 104 / 109 40% 1 24.03.2027 -
Madallah Al-Olayan Al-Ettifaq Ativo 110 / 115 40% 1 22.03.2027 -
Valentín Vada Damac Ativo 117 / 112 40% 3 21.03.2027 -
Georgy Melkadze Akhmat Grozny Ativo 100 / 105 40% 3 20.03.2027 -
Marcelo Torres Gimnasia La Plata Ativo 107 / 111 40% 1 20.03.2027 -
Houssemeddine Ghacha USM Alger Ativo 106 / 112 40% 3 18.03.2027 -
Cedric Gondo Reggiana Ativo 128 / 115 40% 1 18.03.2027 -
Davit Volkovi Zira Ativo 121 / 124 40% 1 18.03.2027 -
Erick Ngcobo Black Aces Ativo 110 / 101 40% 5 17.03.2027 -
Muharrem Jashari LNZ Ativo 110 / 114 40% 1 17.03.2027 -
Andreas Gruber DAC Dunajska Streda Ativo 111 / 111 40% 1 16.03.2027 -
Jay-Roy Grot OB Ativo 101 / 121 40% 1 16.03.2027 -
Yassine Benzia Al-Fayha Ativo 110 / 123 40% 3 14.03.2027 -
Vitalii Dakhnovskyi Bukovyna Ativo 105 / 107 40% 1 13.03.2027 -
Miro Dinamo Makhachkala Ativo 110 / 119 40% 4 12.03.2027 -
Álex Marchal Real Sociedad Ativo 106 / 125 40% 1 12.03.2027 -
Silvère Ganvoula Al-Fayha Ativo 126 / 117 40% 1 12.03.2027 -
Chuba Akpom Ipswich Town Ativo 119 / 130 40% 1 11.03.2027 -
Luca Martínez Dupuy Godoy Cruz Ativo 132 / 122 40% 1 11.03.2027 -
Kyle John Port Vale Ativo 100 / 102 40% 2 09.03.2027 -
Connor Barrett Walsall Ativo 118 / 102 40% 1 09.03.2027 -
Jason Al-Fayha Rejeitado 115 / 130 40% 10 08.03.2027 Rejeitar
Ali Saleh Al Wasl Ativo 134 / 115 40% 3 08.03.2027 -
Ihor Krasnopir Polissia Ativo 116 / 125 40% 1 08.03.2027 -
Negueba Mirassol Ativo 136 / 124 40% 1 08.03.2027 -
Kwadwo Kudus Hasaacas Ativo 98 / 108 40% 2 05.03.2027 -
Alfa Semedo Al-Fayha Ativo 127 / 125 40% 3 04.03.2027 -
Lucas Cano All Boys Ativo 111 / 116 40% 1 04.03.2027 -
Sultan Al-Ghannam Al-Nassr Ativo 114 / 116 40% 5 03.03.2027 -
Ahmed Bamasud Al-Fayha Ativo 96 / 106 40% 2 03.03.2027 -
Mohamed Azzi Dinamo Makhachkala Ativo 111 / 115 40% 1 03.03.2027 -
Sinoxolo Kwayiba Chippa United Rejeitado 122 / 103 40% 1 03.03.2027 Mais informações
Jan Hurtado Volos NPS Ativo 133 / 121 40% 1 01.03.2027 -
Trezeguet Al-Riyadh Ativo 135 / 134 40% 7 27.02.2027 -
Lebo Mothiba Mamelodi Sundowns Ativo 130 / 117 40% 1 27.02.2027 -
Elias Manoel Tijuana Ativo 105 / 118 40% 1 26.02.2027 -
Ahmed Bahusayn Al-Taawoun Ativo 116 / 108 40% 1 26.02.2027 -
António Eirô Lokomotiv Sofia Ativo 122 / 115 40% 1 26.02.2027 -
Amine Bassi CR Belouizdad Ativo 115 / 120 40% 1 24.02.2027 -
Róbert Polievka MTK Budapest Ativo 112 / 116 40% 1 23.02.2027 -
Kyreece Lisbie Colchester United Ativo 110 / 118 40% 1 21.02.2027 -
Rhian Brewster Derby County Ativo 120 / 127 40% 1 19.02.2027 -
Martín Garnerone Estudiantes Ativo 122 / 108 40% 1 19.02.2027 -
Braian Álvarez Arsenal Tula Ativo 116 / 111 40% 1 19.02.2027 -
Aubrey Modiba Mamelodi Sundowns Ativo 119 / 124 40% 1 18.02.2027 -
Abdulrahman Ghareeb Al-Ahli Ativo 115 / 113 40% 1 18.02.2027 -
Tariq Abdullah Damac Ativo 98 / 98 40% 2 16.02.2027 -
Abderrahmane Meziane CR Belouizdad Ativo 113 / 110 40% 2 13.02.2027 -
Jayden Sweeney Grimsby Town Ativo 88 / 109 40% 1 12.02.2027 -
Keagan Manyama Ajax Cape Town Ativo 104 / 118 40% 1 10.02.2027 -
François Kamano Sochi Ativo 116 / 107 40% 2 09.02.2027 -
Mohamed Kanno Al-Hilal Ativo 134 / 129 40% 3 08.02.2027 -
Faiz Mattoir Septemvri Ativo 105 / 115 40% 1 07.02.2027 -
Charles Vernam Grimsby Town Ativo 97 / 99 40% 1 06.02.2027 -
Iuri Medeiros Ujpest Ativo 138 / 124 40% 1 05.02.2027 -
Yanis Hamache MC Oran Ativo 115 / 113 40% 1 05.02.2027 -
Ali Suqrat Al Shaab Ativo 102 / 126 40% 1 05.02.2027 -
Bradley Cross Kaizer Chiefs Ativo 113 / 107 40% 1 05.02.2027 -
Pedro Rebocho Al-Khaleej Ativo 109 / 114 40% 2 01.02.2027 -
Jonathan Sulemana BA All Stars Ativo 102 / 103 40% 2 29.01.2027 -
Saleh Abu Al-Shamat Al-Ahli Ativo 131 / 116 40% 1 29.01.2027 -
Mohau Nkota Al-Ettifaq Ativo 118 / 124 40% 2 27.01.2027 -
Lebogang Erasmus Platinum Stars Ativo 104 / 98 40% 1 27.01.2027 -
Charlie Webster Burton Albion Ativo 124 / 110 40% 1 25.01.2027 -
Fahad Al-Zubaidi Al-Fateh Ativo 106 / 113 40% 1 12.01.2027 -
Mohamed Konaté Akhmat Grozny Ativo 114 / 118 40% 1 12.01.2027 -
Chinonso Offor Baltika Ativo 111 / 106 40% 1 11.01.2027 -
Jayden Sweeney Grimsby Town Perdido 96 / 92 40% 1 02.01.2027 -
Kelland Watts Cambridge United Perdido 95 / 104 40% 1 02.01.2027 -
Abdullah Al-Ammar Al-Khaleej Ativo 96 / 102 40% 2 30.12.2026 -
Álvaro Medrán Al-Ettifaq Ativo 135 / 123 40% 5 30.12.2026 -
Evgeny Staver Rubin Ativo 113 / 102 40% 2 28.12.2026 Mais informações
Marius Adamonis Fehervar Ativo 124 / 109 40% 1 28.12.2026 -
Nahuel Manganelli Dinamo Batumi Ativo 127 / 108 40% 1 27.12.2026 -
Jacob Karlstrøm Anorthosis Ativo 126 / 127 40% 1 27.12.2026 -
Kristoffer Zachariassen Ferencvaros Ativo 126 / 120 40% 1 25.12.2026 -
Frédéric Maciel CSKA 1948 Ativo 101 / 114 40% 1 25.12.2026 -
Daniel Harvie Wycombe Wanderers Ativo 100 / 114 40% 1 23.12.2026 -
João Valido Chaves Ativo 102 / 107 40% 1 23.12.2026 -
Younes El Bahraoui Al-Taawoun Ativo 109 / 112 40% 2 21.12.2026 -
Martin Velichkov Lokomotiv Sofia Ativo 93 / 94 40% 2 21.12.2026 -
Kewin Damac Ativo 119 / 125 40% 1 21.12.2026 -
Dimitar Sheytanov CSKA 1948 Ativo 125 / 117 40% 2 18.12.2026 -
Milan Tučić Honved Ativo 99 / 110 40% 1 18.12.2026 -
Jordan Roberts Stevenage Ativo 100 / 121 40% 1 17.12.2026 -
Uerdi Mara Qarabag Ativo 111 / 121 40% 1 17.12.2026 -
Marcelo Miño Debrecen Ativo 117 / 118 40% 1 15.12.2026 -
Saymon Dibba Ativo 121 / 102 40% 1 12.12.2026 -
Kaku Al Ain Ativo 125 / 131 40% 4 07.12.2026 Observar
Saeed Al Naqbi Al Ahli Ativo 126 / 113 40% 1 07.12.2026 Mais informações
Sergey Volkov Rodina Ativo 93 / 99 40% 1 05.12.2026 -
Firas Ben Larbi Sharjah Ativo 115 / 118 40% 3 04.12.2026 -
Lucas Bruera Carabobo Ativo 111 / 129 40% 1 02.12.2026 -
Nicolás Giménez Al Wasl Ativo 119 / 119 40% 4 30.11.2026 -
Karim El Berkaoui Al Dhafra Ativo 124 / 113 40% 2 27.11.2026 -
Lautaro Petruchi Al Shabab Ativo 106 / 122 40% 1 27.11.2026 -
Patrik Demjén MTK Budapest Ativo 98 / 119 40% 1 27.11.2026 -
Daniil Frolkin Fakel Ativo 119 / 106 40% 1 25.11.2026 -
Khalfan Al Naqbi Al Ahli Ativo 109 / 121 40% 1 25.11.2026 -
Thabo Nodada Maritzburg United Ativo 96 / 114 40% 1 22.11.2026 -
Moussa N'Diaye Al Nasr Ativo 122 / 112 40% 1 21.11.2026 -
Mohammed Al-Dossary Al-Ra'ed Ativo 112 / 92 40% 1 21.11.2026 -
João Moreira Al Nasr Ativo 101 / 127 40% 2 19.11.2026 -
Lebogang Zwane Black Aces Ativo 90 / 97 40% 1 18.11.2026 -
Edarlyn Reyes Arsenal Tula Ativo 100 / 97 40% 1 18.11.2026 -
Abdulla Abdullayev Dibba Ativo 103 / 115 40% 3 16.11.2026 -
Haashim Domingo Maritzburg United Ativo 123 / 117 40% 1 11.11.2026 -
Agustín Ramírez Inter Ativo 120 / 95 40% 1 09.11.2026 -
Mohammed Rabii Al Jazira Ativo 112 / 114 40% 2 04.11.2026 -
Gift Ngcobo SuperSport United Ativo 94 / 116 40% 1 04.11.2026 -
Abdullah Al-Khaibari Al-Nassr Ativo 110 / 125 40% 1 03.11.2026 -
Facundo Kruspzky Al Wahda Ativo 111 / 126 40% 1 03.11.2026 -
Ahmed Hamdi Ittihad Ativo 106 / 109 40% 1 01.11.2026 -
Caio Lucas Al Ain Ativo 136 / 121 40% 2 29.10.2026 -
Suhail Al-Noobi Baniyas Ativo 108 / 102 40% 3 28.10.2026 -
Alfredo Garcia La Equidad Ativo 152 / 147 40% 1 23.10.2026 -
Jobson Al Dhafra Ativo 106 / 122 40% 2 19.10.2026 -
Erik Al Ahli Ativo 107 / 130 40% 2 15.10.2026 -
Nasser Saeed Al Shaab Ativo 113 / 114 40% 3 13.10.2026 -
Hugo Al Wasl Ativo 129 / 108 40% 1 13.10.2026 -
Reda Jaadi BATE Ativo 107 / 113 40% 4 11.10.2026 -
David Gallardo Gimnasia y Esgrima Ativo 99 / 107 40% 1 10.10.2026 -
Nasser Al Shamsi Al Shabab Ativo 109 / 134 40% 1 10.10.2026 -
Hamza Sakhi Hajer Ativo 95 / 106 40% 1 08.10.2026 -
Aljoša Matko Ujpest Ativo 118 / 127 40% 1 07.10.2026 -
Saeed Baattia Al-Fateh Ativo 93 / 97 40% 2 05.10.2026 -
Aiman Yahya Al-Nassr Ativo 112 / 120 40% 1 04.10.2026 -
Mohammed Abbas Al Ain Ativo 94 / 112 40% 2 01.10.2026 -
Sultan Mandash Al-Hilal Ativo 128 / 113 40% 1 01.10.2026 -
Darwin González Al-Wehda Ativo 106 / 122 40% 1 26.09.2026 -
Mohamed El Khaloui Al Dhafra Ativo 120 / 98 40% 1 24.09.2026 -
Leandrinho Emirates Club Ativo 107 / 107 40% 1 15.09.2026 -
Brahima Diarra Al Wahda Ativo 102 / 119 40% 1 12.09.2026 -
Saeed Al-Hamsal Al-Khaleej Ativo 91 / 100 40% 1 12.09.2026 -
Ibrahim Bayesh Al Dhafra Ativo 122 / 131 40% 1 10.09.2026 -
Mohammad Ghorbani Al Wahda Ativo 96 / 117 40% 1 09.09.2026 -
Majid Surour Sharjah Ativo 114 / 114 40% 1 09.09.2026 -
Ibrahim Yaqoob Al Ahli Ativo 104 / 113 40% 1 07.09.2026 -
Haitham Asiri Al-Faisaly Ativo 103 / 96 40% 1 31.08.2026 -
Hugo Moura Al-Fayha Ativo 106 / 124 40% 1 31.08.2026 -
Khalid Al-Ghannam Al-Ettifaq Ativo 124 / 120 40% 1 30.08.2026 -
Rafael Rodrigues Al Ain Ativo 131 / 112 40% 1 30.08.2026 -
Elton Acolatse Al-Hazem Ativo 130 / 116 40% 2 29.08.2026 -
Renato Tapia Al Wasl Ativo 148 / 140 40% 1 29.08.2026 -
Guga Al Wahda Ativo 98 / 104 40% 1 27.08.2026 -
Amer Ismail Al Ahli Ativo 120 / 114 40% 1 27.08.2026 -
Yassine Bounou Al-Hilal Ativo 152 / 144 40% 1 02.08.2026 -
Ousmane Camara Sharjah Ativo 127 / 118 40% 1 01.08.2026 -